Date String (YYYY-MM-DD hh:mm:ss) UTC,Instrument flags,Ambient pressure (hPa),Sample flow (lpm),Bypass flow (lpm),Sample temperature (°C),Ambient temperature (°C),ASC tube jacket temperature (°C),LED temperature (°C),Box temperature (°C),Sample RH (%),Span deviation,Mass concentration (μg/m³),Mass concentration (μg/m³),Mass concentration (μg/m³)
DateTimeUTC,F1_M11,P_M11,Q1_M11,Q2_M11,T1_M11,T2_M11,T3_M11,T4_M11,T5_M11,U1_M11,ZSPAN_M11,X0_M11,X2_M11,X1_M11
2021-11-17 21:00:00,,0831.0,5.00,0.00,23.7,23.1,00.0,32.7,25.5,08.8,0000.0,0015.11,0003.73,0001.97
2021-11-17 21:01:00,,0831.1,5.00,0.00,23.8,23.1,00.0,32.7,25.6,08.8,0000.0,0015.97,0003.65,0001.96
2021-11-17 21:02:00,,0831.0,5.01,0.00,23.8,23.1,00.0,32.7,25.6,08.8,0000.0,0016.82,0003.63,0001.94
2021-11-17 21:03:00,,0831.0,4.99,0.00,23.8,23.1,00.0,32.7,25.6,08.8,0000.0,0016.91,0003.64,0001.94
2021-11-17 21:04:00,,0831.0,5.01,0.00,23.8,23.1,00.0,32.7,25.5,08.8,0000.0,0016.92,0003.68,0001.95
2021-11-17 21:05:00,,0831.0,4.99,0.00,23.7,23.1,00.0,32.7,25.5,08.8,0000.0,0017.20,0003.70,0001.95
2021-11-17 21:06:00,,0831.0,5.01,0.00,23.7,23.1,00.0,32.7,25.5,08.8,0000.0,0017.13,0003.78,0001.95
2021-11-17 21:07:00,,0831.1,4.99,0.00,23.7,23.0,00.0,32.7,25.4,08.8,0000.0,0016.20,0003.83,0001.97
2021-11-17 21:08:00,,0831.0,5.00,0.00,23.7,23.0,00.0,32.7,25.4,08.9,0000.0,0015.76,0003.82,0001.97
2021-11-17 21:09:00,,0831.0,5.00,0.00,23.6,22.9,00.0,32.7,25.3,08.8,0000.0,0015.04,0003.77,0001.95
2021-11-17 21:10:00,,0831.0,5.00,0.00,23.6,22.9,00.0,32.7,25.3,08.9,0000.0,0014.15,0003.75,0001.96
2021-11-17 21:11:00,,0831.0,5.00,0.00,23.6,22.9,00.0,32.7,25.3,09.0,0000.0,0013.52,0003.70,0001.96
2021-11-17 21:12:00,,0831.0,5.01,0.00,23.6,22.9,00.0,32.7,25.4,08.9,0000.0,0012.84,0003.74,0001.97
2021-11-17 21:13:00,,0830.9,4.99,0.00,23.6,22.9,00.0,32.7,25.3,08.8,0000.0,0012.83,0003.77,0002.00
2021-11-17 21:14:00,,0830.9,5.00,0.00,23.6,22.9,00.0,32.7,25.3,08.9,0000.0,0012.53,0003.80,0002.03
2021-11-17 21:15:00,,0831.0,5.01,0.00,23.6,22.9,00.0,32.7,25.4,08.9,0000.0,0012.30,0003.82,0002.06
2021-11-17 21:16:00,,0830.9,4.98,0.00,23.6,23.0,00.0,32.7,25.4,08.9,0000.0,0011.84,0003.86,0002.09
2021-11-17 21:17:00,,0830.9,5.01,0.00,23.6,23.0,00.0,32.7,25.4,08.9,0000.0,0011.79,0003.77,0002.11
2021-11-17 21:18:00,,0830.9,5.01,0.00,23.6,23.0,00.0,32.7,25.4,08.9,0000.0,0012.02,0003.76,0002.12
2021-11-17 21:19:00,,0830.9,4.99,0.00,23.6,23.0,00.0,32.7,25.5,08.9,0000.0,0013.26,0003.80,0002.15
2021-11-17 21:20:00,,0830.9,5.00,0.00,23.6,23.0,00.0,32.7,25.5,08.9,0000.0,0013.78,0003.85,0002.18
2021-11-17 21:21:00,,0830.9,5.00,0.00,23.6,23.0,00.0,32.7,25.5,08.9,0000.0,0014.41,0003.89,0002.19
2021-11-17 21:22:00,,0830.9,4.99,0.00,23.7,23.0,00.0,32.7,25.5,08.9,0000.0,0014.68,0003.93,0002.23
2021-11-17 21:23:00,,0830.9,5.01,0.00,23.7,23.0,00.0,32.7,25.5,08.9,0000.0,0015.31,0003.96,0002.25
2021-11-17 21:24:00,,0830.9,5.00,0.00,23.7,23.0,00.0,32.7,25.5,08.9,0000.0,0015.26,0003.95,0002.26
2021-11-17 21:25:00,,0830.9,5.01,0.00,23.7,23.0,00.0,32.7,25.5,08.9,0000.0,0016.13,0003.95,0002.27
2021-11-17 21:26:00,,0830.9,4.99,0.00,23.7,23.0,00.0,32.7,25.5,08.9,0000.0,0016.20,0003.94,0002.27
2021-11-17 21:27:00,,0830.9,5.02,0.00,23.7,23.0,00.0,32.7,25.4,08.9,0000.0,0016.03,0003.91,0002.29
2021-11-17 21:28:00,,0830.9,5.00,0.00,23.6,22.9,00.0,32.7,25.4,08.9,0000.0,0016.16,0003.98,0002.33
2021-11-17 21:29:00,,0830.9,4.99,0.00,23.6,23.0,00.0,32.7,25.4,09.0,0000.0,0016.87,0004.01,0002.35
2021-11-17 21:30:00,,0831.0,5.01,0.00,23.6,22.9,00.0,32.6,25.3,08.9,0000.0,0016.39,0004.04,0002.37
2021-11-17 21:31:00,,0831.0,4.99,0.00,23.6,22.9,00.0,32.6,25.3,08.9,0000.0,0016.15,0004.06,0002.41
2021-11-17 21:32:00,,0831.0,5.01,0.00,23.6,22.9,00.0,32.6,25.3,08.9,0000.0,0016.08,0004.02,0002.43
2021-11-17 21:33:00,,0831.0,4.99,0.00,23.6,22.9,00.0,32.6,25.3,09.0,0000.0,0015.52,0003.99,0002.45
2021-11-17 21:34:00,,0831.0,5.01,0.00,23.6,22.9,00.0,32.6,25.3,09.0,0000.0,0014.86,0004.05,0002.48
2021-11-17 21:35:00,,0831.0,4.99,0.00,23.6,22.9,00.0,32.6,25.3,09.0,0000.0,0013.82,0004.06,0002.51
2021-11-17 21:36:00,,0831.0,5.01,0.00,23.5,22.9,00.0,32.6,25.3,09.0,0000.0,0013.68,0004.06,0002.54
2021-11-17 21:37:00,,0831.0,4.99,0.00,23.5,22.9,00.0,32.6,25.2,08.9,0000.0,0014.42,0004.07,0002.57
2021-11-17 21:38:00,,0831.0,5.01,0.00,23.5,22.8,00.0,32.6,25.3,09.0,0000.0,0015.59,0004.13,0002.57
2021-11-17 21:39:00,,0830.9,4.99,0.00,23.5,22.8,00.0,32.6,25.3,09.0,0000.0,0016.38,0004.15,0002.57
2021-11-17 21:40:00,,0830.9,5.00,0.00,23.5,22.8,00.0,32.6,25.3,09.0,0000.0,0016.16,0004.19,0002.57
2021-11-17 21:41:00,,0830.9,5.00,0.00,23.6,22.9,00.0,32.6,25.3,09.0,0000.0,0015.68,0004.20,0002.59
2021-11-17 21:42:00,,0831.0,4.99,0.00,23.6,22.9,00.0,32.6,25.3,09.0,0000.0,0015.93,0004.21,0002.57
2021-11-17 21:43:00,,0831.0,5.02,0.00,23.6,22.9,00.0,32.6,25.3,09.1,0000.0,0016.11,0004.31,0002.59
2021-11-17 21:44:00,,0831.0,5.00,0.00,23.6,22.9,00.0,32.6,25.3,09.1,0000.0,0016.79,0004.36,0002.58
2021-11-17 21:45:00,,0831.0,4.99,0.00,23.5,22.9,00.0,32.6,25.3,09.1,0000.0,0016.93,0004.30,0002.59
2021-11-17 21:46:00,,0831.0,5.00,0.00,23.5,22.8,00.0,32.6,25.2,09.1,0000.0,0017.32,0004.32,0002.59
2021-11-17 21:47:00,,0831.2,5.00,0.00,23.5,22.7,00.0,32.6,25.2,09.1,0000.0,0017.02,0004.38,0002.59
2021-11-17 21:48:00,,0831.2,5.01,0.00,23.4,22.6,00.0,32.6,25.1,09.1,0000.0,0017.41,0004.41,0002.58
2021-11-17 21:49:00,,0831.1,4.99,0.00,23.4,22.7,00.0,32.5,25.1,09.1,0000.0,0017.52,0004.40,0002.58
2021-11-17 21:50:00,,0831.1,5.03,0.00,23.4,22.7,00.0,32.5,25.1,09.2,0000.0,0016.85,0004.36,0002.57
2021-11-17 21:51:00,,0831.1,4.99,0.00,23.4,22.7,00.0,32.5,25.1,09.1,0000.0,0016.24,0004.33,0002.56
2021-11-17 21:52:00,,0831.1,5.01,0.00,23.4,22.7,00.0,32.5,25.1,09.2,0000.0,0016.69,0004.35,0002.55
2021-11-17 21:53:00,,0831.1,4.98,0.00,23.4,22.8,00.0,32.5,25.1,09.1,0000.0,0017.36,0004.36,0002.55
2021-11-17 21:54:00,,0831.2,5.01,0.00,23.4,22.8,00.0,32.5,25.1,09.1,0000.0,0018.99,0004.34,0002.53
2021-11-17 21:55:00,,0831.2,5.01,0.00,23.4,22.7,00.0,32.5,25.1,09.2,0000.0,0018.59,0004.37,0002.54
2021-11-17 21:56:00,,0831.2,5.00,0.00,23.4,22.7,00.0,32.5,25.1,09.2,0000.0,0018.31,0004.42,0002.52
2021-11-17 21:57:00,,0831.1,5.00,0.00,23.4,22.7,00.0,32.5,25.1,09.1,0000.0,0017.87,0004.41,0002.49
2021-11-17 21:58:00,,0831.2,5.00,0.00,23.4,22.7,00.0,32.5,25.1,09.0,0000.0,0018.21,0004.44,0002.45
2021-11-17 21:59:00,,0831.2,5.00,0.00,23.4,22.7,00.0,32.5,25.1,09.1,0000.0,0017.64,0004.38,0002.42
